Time,TemperatureF,DewpointF,PressureIn,WindDirection,WindDirectionDegrees,WindSpeedMPH,WindSpeedGustMPH,Humidity,HourlyPrecipIn,Conditions,Clouds,dailyrainin,SoftwareType,DateUTC
2013-01-19 00:02:00,33.0,31.0,-100.00,SW,225,3.0,6.0,92,0.00,,,-99.99,,2013-01-19 06:02:00,
2013-01-19 00:12:00,33.0,31.0,-100.00,WSW,240,3.0,4.0,92,0.00,,,-99.99,,2013-01-19 06:12:00,
2013-01-19 00:22:00,33.0,31.0,-100.00,SW,230,4.0,6.0,92,0.00,,,-99.99,,2013-01-19 06:22:00,
2013-01-19 00:32:00,33.0,31.0,-100.00,SW,215,2.0,4.0,92,0.00,,,-99.99,,2013-01-19 06:32:00,
2013-01-19 00:43:00,33.0,31.0,-100.00,SW,215,2.0,4.0,92,0.00,,,-99.99,,2013-01-19 06:43:00,
2013-01-19 00:52:00,33.0,31.0,-100.00,SW,230,4.0,6.0,92,0.00,,,-99.99,,2013-01-19 06:52:00,
2013-01-19 01:02:00,33.0,31.0,-100.00,SW,230,4.0,6.0,92,0.00,,,-99.99,,2013-01-19 07:02:00,
2013-01-19 01:12:00,33.0,31.0,-100.00,SW,215,4.0,6.0,92,0.00,,,-99.99,,2013-01-19 07:12:00,
2013-01-19 01:22:00,33.0,31.0,-100.00,SW,215,2.0,5.0,92,0.00,,,-99.99,,2013-01-19 07:22:00,
2013-01-19 01:32:00,34.0,32.0,-100.00,SW,220,1.0,4.0,92,0.00,,,-99.99,,2013-01-19 07:32:00,
2013-01-19 01:42:00,34.0,32.0,-100.00,SW,220,1.0,4.0,92,0.00,,,-99.99,,2013-01-19 07:42:00,
2013-01-19 01:52:00,34.0,32.0,-100.00,South,185,2.0,4.0,92,0.00,,,-99.99,,2013-01-19 07:52:00,
2013-01-19 02:02:00,34.0,32.0,-100.00,South,185,2.0,4.0,92,0.00,,,-99.99,,2013-01-19 08:02:00,
2013-01-19 02:12:00,33.0,31.0,-100.00,SSW,210,1.0,4.0,92,0.00,,,-99.99,,2013-01-19 08:12:00,
2013-01-19 02:22:00,33.0,31.0,-100.00,SW,220,3.0,5.0,92,0.00,,,-99.99,,2013-01-19 08:22:00,
2013-01-19 02:32:00,34.0,32.0,-100.00,South,185,2.0,5.0,92,0.00,,,-99.99,,2013-01-19 08:32:00,
2013-01-19 02:42:00,34.0,32.0,-100.00,South,185,2.0,5.0,92,0.00,,,-99.99,,2013-01-19 08:42:00,
2013-01-19 02:52:00,34.0,32.0,-100.00,South,190,1.0,5.0,92,0.00,,,-99.99,,2013-01-19 08:52:00,
2013-01-19 03:02:00,34.0,32.0,-100.00,South,190,1.0,5.0,92,0.00,,,-99.99,,2013-01-19 09:02:00,
2013-01-19 03:12:00,33.0,31.0,-100.00,SSW,195,1.0,3.0,92,0.00,,,-99.99,,2013-01-19 09:12:00,
2013-01-19 03:22:00,33.0,31.0,-100.00,SSW,210,1.0,3.0,92,0.00,,,-99.99,,2013-01-19 09:22:00,
2013-01-19 03:32:00,33.0,31.0,-100.00,SW,220,3.0,4.0,92,0.00,,,-99.99,,2013-01-19 09:32:00,
2013-01-19 03:42:00,33.0,31.0,-100.00,SW,220,3.0,4.0,92,0.00,,,-99.99,,2013-01-19 09:42:00,
2013-01-19 03:52:00,34.0,32.0,-100.00,South,175,5.0,6.0,93,0.00,,,-99.99,,2013-01-19 09:52:00,
2013-01-19 04:02:00,34.0,32.0,-100.00,South,175,5.0,6.0,93,0.00,,,-99.99,,2013-01-19 10:02:00,
2013-01-19 04:12:00,33.0,32.0,-100.00,South,185,3.0,6.0,93,0.00,,,-99.99,,2013-01-19 10:12:00,
2013-01-19 04:22:00,33.0,31.0,-100.00,South,185,4.0,6.0,93,0.00,,,-99.99,,2013-01-19 10:22:00,
2013-01-19 04:32:00,33.0,31.0,-100.00,SSW,200,4.0,7.0,93,0.00,,,-99.99,,2013-01-19 10:32:00,
2013-01-19 04:42:00,33.0,31.0,-100.00,SSW,200,4.0,7.0,93,0.00,,,-99.99,,2013-01-19 10:42:00,
2013-01-19 04:52:00,33.0,31.0,-100.00,South,190,4.0,7.0,92,0.00,,,-99.99,,2013-01-19 10:52:00,
2013-01-19 05:03:00,33.0,31.0,-100.00,South,190,4.0,7.0,92,0.00,,,-99.99,,2013-01-19 11:03:00,
2013-01-19 05:12:00,33.0,31.0,-100.00,SSW,205,3.0,7.0,93,0.00,,,-99.99,,2013-01-19 11:12:00,
2013-01-19 06:48:00,33.0,31.0,-100.00,South,175,4.0,6.0,92,0.00,,,-99.99,,2013-01-19 12:48:00,
2013-01-19 06:52:00,33.0,31.0,-100.00,SSW,195,3.0,6.0,92,0.00,,,-99.99,,2013-01-19 12:52:00,
2013-01-19 07:03:00,33.0,31.0,-100.00,SSW,195,3.0,6.0,92,0.00,,,-99.99,,2013-01-19 13:03:00,
2013-01-19 07:12:00,33.0,31.0,-100.00,SW,215,2.0,6.0,92,0.00,,,-99.99,,2013-01-19 13:12:00,
2013-01-19 07:22:00,33.0,31.0,-100.00,SW,220,1.0,6.0,92,0.00,,,-99.99,,2013-01-19 13:22:00,
2013-01-19 07:33:00,32.0,30.0,-100.00,SSW,210,2.0,4.0,92,0.00,,,-99.99,,2013-01-19 13:33:00,
2013-01-19 07:42:00,32.0,30.0,-100.00,SW,230,5.0,6.0,92,0.00,,,-99.99,,2013-01-19 13:42:00,
2013-01-19 07:52:00,33.0,31.0,-100.00,WSW,245,5.0,9.0,91,0.00,,,-99.99,,2013-01-19 13:52:00,
2013-01-19 08:02:00,33.0,31.0,-100.00,WSW,245,5.0,9.0,91,0.00,,,-99.99,,2013-01-19 14:02:00,
2013-01-19 08:12:00,33.0,31.0,-100.00,SW,235,4.0,9.0,90,0.00,,,-99.99,,2013-01-19 14:12:00,
2013-01-19 08:23:00,33.0,31.0,-100.00,WSW,245,7.0,9.0,89,0.00,,,-99.99,,2013-01-19 14:23:00,
2013-01-19 08:33:00,34.0,30.0,-100.00,West,260,7.0,11.0,86,0.00,,,-99.99,,2013-01-19 14:33:00,
2013-01-19 08:42:00,34.0,30.0,-100.00,West,260,7.0,11.0,86,0.00,,,-99.99,,2013-01-19 14:42:00,
2013-01-19 08:53:00,35.0,30.0,-100.00,West,260,6.0,10.0,82,0.00,,,-99.99,,2013-01-19 14:53:00,
2013-01-19 09:03:00,35.0,30.0,-100.00,West,260,6.0,10.0,82,0.00,,,-99.99,,2013-01-19 15:03:00,
2013-01-19 09:12:00,36.0,30.0,-100.00,West,270,6.0,10.0,79,0.00,,,-99.99,,2013-01-19 15:12:00,
2013-01-19 09:22:00,36.0,30.0,-100.00,West,270,9.0,12.0,77,0.00,,,-99.99,,2013-01-19 15:22:00,
2013-01-19 09:33:00,36.0,29.0,-100.00,WNW,285,10.0,14.0,76,0.00,,,-99.99,,2013-01-19 15:33:00,
2013-01-19 09:43:00,36.0,29.0,-100.00,WNW,285,10.0,14.0,76,0.00,,,-99.99,,2013-01-19 15:43:00,
2013-01-19 09:53:00,39.0,31.0,-100.00,West,280,14.0,17.0,71,0.00,,,-99.99,,2013-01-19 15:53:00,
2013-01-19 10:03:00,39.0,31.0,-100.00,West,280,14.0,17.0,71,0.00,,,-99.99,,2013-01-19 16:03:00,
2013-01-19 10:12:00,40.0,31.0,-100.00,WNW,285,14.0,19.0,68,0.00,,,-99.99,,2013-01-19 16:12:00,
2013-01-19 10:23:00,41.0,31.0,-100.00,WNW,290,14.0,18.0,65,0.00,,,-99.99,,2013-01-19 16:23:00,
2013-01-19 10:33:00,42.0,30.0,-100.00,NW,305,19.0,23.0,61,0.00,,,-99.99,,2013-01-19 16:33:00,
2013-01-19 10:43:00,42.0,30.0,-100.00,NW,305,19.0,23.0,61,0.00,,,-99.99,,2013-01-19 16:43:00,
2013-01-19 10:53:00,41.0,30.0,-100.00,WNW,290,12.0,20.0,64,0.00,,,-99.99,,2013-01-19 16:53:00,
2013-01-19 11:02:00,41.0,30.0,-100.00,WNW,290,12.0,20.0,64,0.00,,,-99.99,,2013-01-19 17:02:00,
2013-01-19 11:17:00,41.0,29.0,-100.00,WNW,290,15.0,20.0,62,0.00,,,-99.99,,2013-01-19 17:17:00,
2013-01-19 11:27:00,39.0,29.0,-100.00,WNW,290,16.0,21.0,65,0.00,,,-99.99,,2013-01-19 17:27:00,
2013-01-19 11:35:00,42.0,30.0,-100.00,WNW,285,17.0,24.0,62,0.00,,,-99.99,,2013-01-19 17:35:00,
2013-01-19 11:46:00,42.0,30.0,-100.00,WNW,285,17.0,24.0,62,0.00,,,-99.99,,2013-01-19 17:46:00,
2013-01-19 11:53:00,42.0,30.0,-100.00,WNW,285,16.0,22.0,62,0.00,,,-99.99,,2013-01-19 17:53:00,
2013-01-19 12:09:00,42.0,30.0,-100.00,WNW,285,16.0,22.0,62,0.00,,,-99.99,,2013-01-19 18:09:00,
2013-01-19 12:25:00,43.0,30.0,-100.00,WNW,285,19.0,24.0,60,0.00,,,-99.99,,2013-01-19 18:25:00,
2013-01-19 12:35:00,43.0,30.0,-100.00,WNW,290,19.0,26.0,60,0.00,,,-99.99,,2013-01-19 18:35:00,
2013-01-19 12:44:00,43.0,30.0,-100.00,WNW,290,19.0,26.0,60,0.00,,,-99.99,,2013-01-19 18:44:00,
2013-01-19 12:54:00,43.0,31.0,-100.00,WNW,295,21.0,27.0,61,0.00,,,-99.99,,2013-01-19 18:54:00,
2013-01-19 13:07:00,43.0,31.0,-100.00,WNW,295,21.0,27.0,61,0.00,,,-99.99,,2013-01-19 19:07:00,
2013-01-19 13:18:00,43.0,31.0,-100.00,NW,310,22.0,27.0,61,0.00,,,-99.99,,2013-01-19 19:18:00,
2013-01-19 13:28:00,43.0,31.0,-100.00,WNW,290,20.0,31.0,63,0.00,,,-99.99,,2013-01-19 19:28:00,
2013-01-19 13:38:00,41.0,31.0,-100.00,WNW,295,19.0,28.0,66,0.00,,,-99.99,,2013-01-19 19:38:00,
2013-01-19 13:45:00,41.0,31.0,-100.00,WNW,295,19.0,28.0,66,0.00,,,-99.99,,2013-01-19 19:45:00,
2013-01-19 13:54:00,42.0,32.0,-100.00,West,275,23.0,32.0,66,0.00,,,-99.99,,2013-01-19 19:54:00,
2013-01-19 14:09:00,42.0,32.0,-100.00,West,275,23.0,32.0,66,0.00,,,-99.99,,2013-01-19 20:09:00,
2013-01-19 14:17:00,42.0,32.0,-100.00,WNW,300,23.0,30.0,66,0.00,,,-99.99,,2013-01-19 20:17:00,
2013-01-19 14:24:00,42.0,32.0,-100.00,WNW,300,24.0,35.0,66,0.00,,,-99.99,,2013-01-19 20:24:00,
2013-01-19 14:37:00,42.0,31.0,-100.00,WNW,290,22.0,34.0,66,0.00,,,-99.99,,2013-01-19 20:37:00,
2013-01-19 14:45:00,42.0,31.0,-100.00,WNW,290,22.0,34.0,66,0.00,,,-99.99,,2013-01-19 20:45:00,
2013-01-19 14:54:00,41.0,30.0,-100.00,WNW,290,24.0,32.0,65,0.00,,,-99.99,,2013-01-19 20:54:00,
2013-01-19 15:06:00,41.0,30.0,-100.00,WNW,290,24.0,32.0,65,0.00,,,-99.99,,2013-01-19 21:06:00,
2013-01-19 15:14:00,40.0,29.0,-100.00,West,265,29.0,34.0,65,0.00,,,-99.99,,2013-01-19 21:14:00,
2013-01-19 15:42:00,40.0,30.0,-100.00,WNW,290,17.0,28.0,66,0.00,,,-99.99,,2013-01-19 21:42:00,
2013-01-19 15:48:00,39.0,29.0,-100.00,WNW,295,20.0,29.0,67,0.00,,,-99.99,,2013-01-19 21:48:00,
2013-01-19 15:55:00,39.0,29.0,-100.00,West,280,27.0,41.0,67,0.00,,,-99.99,,2013-01-19 21:55:00,
2013-01-19 16:12:00,39.0,29.0,-100.00,West,280,27.0,41.0,67,0.00,,,-99.99,,2013-01-19 22:12:00,
2013-01-19 16:25:00,36.0,29.0,-100.00,WNW,295,30.0,37.0,73,0.00,,,-99.99,,2013-01-19 22:25:00,
2013-01-19 16:34:00,30.0,25.0,-100.00,WSW,255,28.0,39.0,81,0.00,,,-99.99,,2013-01-19 22:34:00,
2013-01-19 16:45:00,30.0,25.0,-100.00,WSW,255,28.0,39.0,81,0.00,,,-99.99,,2013-01-19 22:45:00,
2013-01-19 16:54:00,29.0,25.0,-100.00,WSW,250,26.0,34.0,82,0.00,,,-99.99,,2013-01-19 22:54:00,
2013-01-19 17:12:00,29.0,25.0,-100.00,WSW,250,26.0,34.0,82,0.00,,,-99.99,,2013-01-19 23:12:00,
2013-01-19 17:25:00,28.0,23.0,-100.00,WSW,245,29.0,37.0,82,0.00,,,-99.99,,2013-01-19 23:25:00,
2013-01-19 17:34:00,25.0,20.0,-100.00,WSW,245,34.0,41.0,80,0.00,,,-99.99,,2013-01-19 23:34:00,
2013-01-19 17:45:00,25.0,20.0,-100.00,WSW,245,34.0,41.0,80,0.00,,,-99.99,,2013-01-19 23:45:00,
2013-01-19 17:58:00,25.0,19.0,-100.00,WSW,245,29.0,42.0,79,0.00,,,-99.99,,2013-01-19 23:58:00,
2013-01-19 18:08:00,25.0,19.0,-100.00,WSW,245,29.0,42.0,79,0.00,,,-99.99,,2013-01-20 00:08:00,
2013-01-19 18:15:00,23.0,17.0,-100.00,WNW,285,30.0,50.0,76,0.00,,,-99.99,,2013-01-20 00:15:00,
2013-01-19 18:24:00,22.0,15.0,-100.00,West,280,28.0,41.0,73,0.00,,,-99.99,,2013-01-20 00:24:00,
2013-01-19 18:35:00,20.0,11.0,-100.00,West,270,35.0,48.0,68,0.00,,,-99.99,,2013-01-20 00:35:00,
2013-01-19 18:45:00,20.0,11.0,-100.00,West,270,35.0,48.0,68,0.00,,,-99.99,,2013-01-20 00:45:00,
2013-01-19 18:53:00,18.0,9.0,-100.00,WSW,255,35.0,45.0,67,0.00,,,-99.99,,2013-01-20 00:53:00,
2013-01-19 19:03:00,18.0,9.0,-100.00,WSW,255,35.0,45.0,67,0.00,,,-99.99,,2013-01-20 01:03:00,
2013-01-19 19:24:00,17.0,8.0,-100.00,SW,235,35.0,47.0,66,0.00,,,-99.99,,2013-01-20 01:24:00,
2013-01-19 19:35:00,16.0,7.0,-100.00,WSW,240,28.0,40.0,66,0.00,,,-99.99,,2013-01-20 01:35:00,
2013-01-19 19:45:00,16.0,7.0,-100.00,WSW,240,28.0,40.0,66,0.00,,,-99.99,,2013-01-20 01:45:00,
2013-01-19 19:57:00,15.0,6.0,-100.00,WNW,300,33.0,43.0,67,0.00,,,-99.99,,2013-01-20 01:57:00,
2013-01-19 20:07:00,15.0,6.0,-100.00,WNW,300,33.0,43.0,67,0.00,,,-99.99,,2013-01-20 02:07:00,
2013-01-19 20:14:00,14.0,5.0,-100.00,WSW,255,32.0,42.0,66,0.00,,,-99.99,,2013-01-20 02:14:00,
2013-01-19 20:25:00,14.0,5.0,-100.00,WSW,255,32.0,42.0,66,0.00,,,-99.99,,2013-01-20 02:25:00,
2013-01-19 20:35:00,13.0,4.0,-100.00,West,280,28.0,47.0,66,0.00,,,-99.99,,2013-01-20 02:35:00,
2013-01-19 20:44:00,13.0,4.0,-100.00,West,280,28.0,47.0,66,0.00,,,-99.99,,2013-01-20 02:44:00,
2013-01-19 20:55:00,12.0,3.0,-100.00,West,260,34.0,42.0,67,0.00,,,-99.99,,2013-01-20 02:55:00,
2013-01-19 21:08:00,12.0,3.0,-100.00,West,260,34.0,42.0,67,0.00,,,-99.99,,2013-01-20 03:08:00,
2013-01-19 21:14:00,12.0,3.0,-100.00,West,260,24.0,38.0,68,0.00,,,-99.99,,2013-01-20 03:14:00,
2013-01-19 21:24:00,11.0,4.0,-100.00,SW,220,26.0,36.0,70,0.00,,,-99.99,,2013-01-20 03:24:00,
2013-01-19 21:45:00,11.0,3.0,-100.00,WNW,285,24.0,38.0,70,0.00,,,-99.99,,2013-01-20 03:45:00,
2013-01-19 21:53:00,10.0,2.0,-100.00,WSW,250,30.0,40.0,70,0.00,,,-99.99,,2013-01-20 03:53:00,
2013-01-19 22:04:00,10.0,2.0,-100.00,WSW,250,30.0,40.0,70,0.00,,,-99.99,,2013-01-20 04:04:00,
2013-01-19 22:14:00,9.0,1.0,-100.00,WSW,245,28.0,37.0,70,0.00,,,-99.99,,2013-01-20 04:14:00,
2013-01-19 22:25:00,9.0,1.0,-100.00,WSW,255,28.0,40.0,71,0.00,,,-99.99,,2013-01-20 04:25:00,
2013-01-19 22:35:00,8.0,2.0,-100.00,WSW,255,29.0,37.0,73,0.00,,,-99.99,,2013-01-20 04:35:00,
2013-01-19 22:44:00,8.0,2.0,-100.00,WSW,250,21.0,35.0,74,0.00,,,-99.99,,2013-01-20 04:44:00,
2013-01-19 23:04:00,7.0,0.0,-100.00,West,275,24.0,34.0,71,0.00,,,-99.99,,2013-01-20 05:04:00,
2013-01-19 23:12:00,7.0,-1.0,-100.00,WSW,240,23.0,35.0,70,0.00,,,-99.99,,2013-01-20 05:12:00,
2013-01-19 23:22:00,7.0,-1.0,-100.00,WSW,250,25.0,34.0,70,0.00,,,-99.99,,2013-01-20 05:22:00,
2013-01-19 23:32:00,7.0,0.0,-100.00,SW,225,17.0,24.0,73,0.00,,,-99.99,,2013-01-20 05:32:00,
2013-01-19 23:42:00,7.0,0.0,-100.00,SW,225,17.0,24.0,73,0.00,,,-99.99,,2013-01-20 05:42:00,
2013-01-19 23:53:00,6.0,-1.0,-100.00,West,265,21.0,29.0,72,0.00,,,-99.99,,2013-01-20 05:53:00,